Denver, CO

7:09 AM MDT on April 26, 2017 (GMT -0600)
Denver International

Weather History for KDEN - June, 2013

Change the Weather History Date:

Sunday, June 16, 2013

  Actual Average Record
Temperature  
Mean Temperature 73 °F 68 °F  
Max Temperature 88 °F 83 °F 95 °F (1906)
Min Temperature 58 °F 53 °F 40 °F (1961)
Degree Days  
Heating Degree Days 0 2  
Month to date heating degree days 29 48  
Since 1 June heating degree days 29 48  
Since 1 July heating degree days 6084 6044  
Cooling Degree Days 8 4  
Month to date cooling degree days 92 50  
Year to date cooling degree days 134 72  
Since 1 June cooling degree days 92 50  
Growing Degree Days 24 (Base 50)    
Moisture  
Dew Point 39 °F    
Average Humidity 38    
Maximum Humidity 62    
Minimum Humidity 13    
Precipitation  
Precipitation 0.00 in 0.07 in 2.06 in (1950)
Month to date precipitation 0.07 1.14  
Year to date precipitation 5.31 6.67  
Snow  
Snow 0.00 in - - ()
Month to date snowfall 0  
Since 1 June snowfall 0  
Since 1 July snowfall 78.4  
Snow Depth 0.00 in    
Sea Level Pressure  
Sea Level Pressure 29.91 in    
Wind  
Wind Speed 12 mph (SW)    
Max Wind Speed 36 mph    
Max Gust Speed 53 mph    
Visibility 10 miles    
Events      
T = Trace of Precipitation, MM = Missing Value Source: NWS Daily Summary

Daily Weather History Graph

Daily Weather History Graph

Search for Another Location

Airport or City:

Trip Planner

Search our weather history database for the weather conditions in past years. The results will help you decide how hot, cold, wet, or windy it might be!

Date:

Astronomy

Jun. 16, 2013 Rise Set
Actual Time 5:29 AM MDT 8:29 PM MDT
Civil Twilight 4:57 AM MDT 9:02 PM MDT
Nautical Twilight 4:15 AM MDT 9:43 PM MDT
Astronomical Twilight 3:27 AM MDT 10:31 PM MDT
Moon 1:07 PM MDT (6/16) 12:35 AM MDT (6/16)
Length of Visible Light 16h 04m
Length of Day
14h 59m
Waxing Crescent, 50% of the Moon is Illuminated
Jun 16
Waxing Crescent
Jun 23
Full
Jun 29
Last Quarter
Jul 8
New
Jul 15
First Quarter

Hourly Weather History & Observations

Time (MDT) Temp. Dew Point Humidity Pressure Visibility Wind Dir Wind Speed Gust Speed Precip Events Conditions
12:53 AM 57.9 °F 45.0 °F 62% 29.90 in 10.0 mi ESE 8.1 mph - N/A   Scattered Clouds
1:53 AM 62.1 °F 45.0 °F 53% 29.87 in 10.0 mi SSE 15.0 mph 23.0 mph N/A   Partly Cloudy
2:53 AM 61.0 °F 45.0 °F 56% 29.86 in 10.0 mi South 18.4 mph 32.2 mph N/A   Clear
3:53 AM 61.0 °F 44.1 °F 54% 29.88 in 10.0 mi South 15.0 mph - N/A   Partly Cloudy
4:53 AM 59.0 °F 44.1 °F 58% 29.88 in 10.0 mi South 13.8 mph - N/A   Scattered Clouds
5:53 AM 61.0 °F 44.1 °F 54% 29.89 in 10.0 mi SSW 12.7 mph - N/A   Scattered Clouds
6:53 AM 64.0 °F 45.0 °F 50% 29.89 in 10.0 mi SSW 10.4 mph - N/A   Partly Cloudy
7:53 AM 69.1 °F 46.0 °F 44% 29.91 in 10.0 mi SW 9.2 mph - N/A   Partly Cloudy
8:53 AM 73.0 °F 44.1 °F 35% 29.91 in 10.0 mi SSW 5.8 mph - N/A   Scattered Clouds
9:53 AM 78.1 °F 43.0 °F 29% 29.90 in 10.0 mi SW 4.6 mph - N/A   Scattered Clouds
10:53 AM 84.0 °F 36.0 °F 18% 29.88 in 10.0 mi WNW 6.9 mph - N/A   Scattered Clouds
11:53 AM 87.1 °F 30.0 °F 13% 29.86 in 10.0 mi WNW 5.8 mph - N/A   Mostly Cloudy
12:53 PM 82.9 °F 30.0 °F 15% 29.88 in 10.0 mi West 12.7 mph - N/A   Mostly Cloudy
1:28 PM 78.8 °F 30.2 °F 17% 30.12 in 9.0 mi West 33.4 mph 52.9 mph N/A   Squalls
1:53 PM 77.0 °F 33.1 °F 20% 29.92 in 10.0 mi SW 29.9 mph 38.0 mph N/A   Mostly Cloudy
2:53 PM 75.9 °F 37.0 °F 24% 29.94 in 10.0 mi SW 17.3 mph 26.5 mph N/A   Mostly Cloudy
3:09 PM 77.0 °F 35.6 °F 22% 30.16 in 10.0 mi West 18.4 mph 28.8 mph N/A   Mostly Cloudy
3:14 PM 77.0 °F 35.6 °F 22% 30.16 in 10.0 mi West 19.6 mph 28.8 mph N/A   Mostly Cloudy
3:53 PM 79.0 °F 39.0 °F 24% 29.91 in 10.0 mi WNW 16.1 mph 25.3 mph N/A   Mostly Cloudy
4:53 PM 78.1 °F 37.0 °F 23% 29.91 in 10.0 mi SSW 6.9 mph - N/A   Mostly Cloudy
5:53 PM 80.1 °F 37.0 °F 21% 29.88 in 10.0 mi WSW 10.4 mph 21.9 mph N/A   Mostly Cloudy
6:53 PM 77.0 °F 39.9 °F 26% 29.86 in 10.0 mi SW 20.7 mph 25.3 mph N/A   Mostly Cloudy
7:53 PM 73.9 °F 39.0 °F 28% 29.87 in 10.0 mi WSW 18.4 mph - N/A   Mostly Cloudy
8:53 PM 71.1 °F 37.9 °F 30% 29.88 in 10.0 mi West 11.5 mph - N/A   Mostly Cloudy
9:53 PM 66.9 °F 39.0 °F 36% 29.88 in 10.0 mi WSW 6.9 mph - N/A   Mostly Cloudy
10:53 PM 62.1 °F 39.0 °F 43% 29.91 in 10.0 mi West 8.1 mph - N/A   Scattered Clouds
11:53 PM 64.0 °F 39.0 °F 40% 29.89 in 10.0 mi Calm Calm - N/A   Scattered Clouds